sat.trackr.live / text

‹ back to catalog

STARLINK-37927

NORAD 69556 · 2026-135L

PAYLOAD ACTIVE UNKNOWN

§ Identity

Operator
Country
US
Launch date
2026-06-15
Launch site
AFWTR
Launch vehicle
Mass (kg)
RCS (m²)

Purposes: comms

External: N2YO · Heavens-Above · Gunter

§ Orbital elements

Epoch: 2026-09-19T19:21:53.613792Z

Period
93.90 min
Inclination
97.2843°
Eccentricity
0.0001162
Mean motion
15.33468242 rev/d
Perigee alt
464.7 km
Apogee alt
466.3 km
Semi-major
6,843.6 km
B*
5.1815e-4
RAAN
290.4961°
Arg perigee
243.0267°
Mean anomaly
117.0857°
Rev number
1,489

§ Raw data

STARLINK-379271 69556U 26135L   26262.80687053  .00016702  00000+0  51815-3 0  99912 69556  97.2843 290.4961 0001162 243.0267 117.0857 15.33468242 14890

JSON: /api/v1/satellites/69556 · /tle

For live sub-satellite position, see the globe view (requires WebGL).

§ Visibility from observer

Set your observer location to see the next 7 days of passes ≥ 10°. The values pass through the URL so the page stays shareable.

No JS? Fill the form by hand. The geolocation button needs JavaScript.